Tracking 30298 objects as of 27-Apr-2025
HD Live streaming from Space Station
objects crossing your sky now

STARLINK-31320

Track STARLINK-31320 now!
10-day predictions
STARLINK-31320 is classified as:


NORAD ID: 58886
Int'l Code: 2024-020L
Perigee: 481.5 km
Apogee: 483.1 km
Inclination: 53.2 °
Period: 94.1 minutes
Semi major axis: 6853 km
RCS: Unknown
Launch date: January 29, 2024
Source: United States (US)
Launch site: AIR FORCE WESTERN TEST RANGE (AFWTR)
Your satellite tracking list
Your tracking list is empty




NASA's NSSDC Master Catalog

Two Line Element Set (TLE):
1 58886U 24020L   25116.86215021 -.00006535  00000-0 -20852-3 0  9994
2 58886  53.1619 354.0375 0001151  93.3269 266.7863 15.30230851 70721
Source of the keplerian elements: AFSPC